Location: Frizzleburg
(41.0764°N, 80.4548°W)
Time: 02:48:32
(UTC+00:00)

FENGYUN 3A - Pass Details

Date: 17 November 2019
Orbit: 823 x 836 km, 98.4° (Epoch: 14 December)

Event Time Altitude Azimuth Distance (km) Brightness Sun altitude
Rises 10:34:57 0° 16° (NNE) 3,388 6.9 -18.2°
Reaches altitude 10° 10:37:21 10° 20° (NNE) 2,448 6.2 -17.7°
Maximum altitude 10:42:44 64° 101° (E) 920 4.1 -16.7°
Drops below altitude 10° 10:48:04 10° 183° (S) 2,423 6.2 -15.8°
Sets 10:50:26 0° 186° (S) 3,350 6.9 -15.3°
